Regional Weather Roundup
Issued by NWS

Home | Current Version | Previous Version | Text Only | Print | Product List | Glossary On
Versions: 1 2 3 4 5 6 7 8 9 10 11 12 13 14 15 16 17 18 19 20 21 22 23 24 25 26 27 28 29 30 31 32 33 34 35 36 37 38 39 40 41 42 43 44 45 46 47 48 49 50
000
ASHW40 PHFO 051133
RWRHI

WEATHER ROUNDUP FOR HAWAII
NATIONAL WEATHER SERVICE HONOLULU HI
100 AM HST WED AUG 05 2020

THIS IS AN AUTOMATED REPORT THAT HAS NOT BEEN QUALITY CONTROLLED.

NOTE..."FAIR" INDICATES FEW OR NO CLOUDS BELOW 12,000 FEET WITH NO
SIGNIFICANT WEATHER AND/OR OBSTRUCTIONS TO VISIBILITY.

* - THESE SITES REPORT LIMITED FIELDS
# - BUOY DATA PROVIDED BY PACIFIC ISLANDS OCEAN OBSERVING SYSTEM.

HIZ001>004-051200-
KAUAI-NIIHAU-

CITY           SKY/WX    TMP DP  RH WIND       PRES   REMARKS
LIHUE APT      FAIR      80  72  76 E15       30.09F
PORT ALLEN*      N/A     77 N/A N/A E15G21      N/A
POIPU*           N/A     79 N/A N/A NE8G17      N/A
PRINCEVILLE*     N/A     75 N/A N/A SE5         N/A
KOKOLE POINT*  NOT AVBL
MOLOAA DAIRY*    N/A     77  70  78 E6G13       N/A
WAIMEA HTS*    NOT AVBL
PUU OPAE*      NOT AVBL
PUU LUA*       NOT AVBL
MAKAHA RIDGE*    N/A     70  59  68 E3          N/A
$$

HIZ005>011-051200-
OAHU-

CITY           SKY/WX    TMP DP  RH WIND       PRES   REMARKS
HONOLULU       FAIR      80  67  64 E10       30.05F
KALAELOA       FAIR      78  68  71 NE5       30.06F
KANEOHE MCB    LGT RAIN N/A N/A N/A E12       30.05F
WHEELER FIELD  FAIR      73  67  81 CALM      30.07F
BELLOWS*         N/A     79 N/A N/A NE20        N/A
KAHUKU*        NOT AVBL
WHEELER*       NOT AVBL
WAIANAE HARBOR NOT AVBL
DILLINGHAM*      N/A     73  66  78 E2          N/A
KAHUKU TRN*      N/A     75  70  83 E10G26      N/A
KAWAILOA*      NOT AVBL
KII*             N/A     79  73  83 E18G24      N/A
MAKUA RANGE*     N/A     79  64  61 SE7G18      N/A
OAHU FOREST NW NOT AVBL
SCHOFIELD BRK*   N/A     72  66  83 S2          N/A
SCHOFIELD S*   NOT AVBL
WAIANAE VLY*   NOT AVBL
KUAOKALA*      NOT AVBL
HONOULIUULI*   NOT AVBL
MOKUOLOE IS*     N/A     77 N/A N/A E13         N/A
PALEHUA*       NOT AVBL
WAIAWA PHB*    NOT AVBL
$$

HIZ012>013-051200-
MOLOKAI-

CITY           SKY/WX    TMP DP  RH WIND       PRES   REMARKS
MOLOKAI AIRPT  FAIR      74  66  76 NE13G21   30.07F
KALAUPAPA      NOT AVBL
MAKAPULAPAI*     N/A     79  70  73 E18         N/A
MOLOKAI 1*     NOT AVBL
PUU ALII*        N/A     61  61 100 N3G12       N/A
$$

HIZ016-051200-
KAHOOLAWE-

CITY           SKY/WX    TMP DP  RH WIND       PRES   REMARKS
KAHOOLAWE*     NOT AVBL
HAKIOAWA*      NOT AVBL
HONOKANAIA*    NOT AVBL
KANELOA*         N/A     75  70  83 E15G28    30.13F
KEALIALALO*    NOT AVBL
LUA MAKIKA*    NOT AVBL
$$

HIZ014>015-051200-
LANAI-

CITY           SKY/WX    TMP DP  RH WIND       PRES   REMARKS
LANAI CITY     FAIR      71  71 100 NE12      30.11F
LANAI 1*       NOT AVBL
$$

HIZ017>028-051200-
MAUI-

CITY           SKY/WX    TMP DP  RH WIND       PRES   REMARKS
KAHULUI        MOCLDY    77  67  71 NE10      30.07F
KAPALUA-W MAUI NOT AVBL
HANA AIRPORT   CLOUDY    75  72  88 E8        30.10F
HANA*            N/A     75 N/A N/A S3          N/A
HALEAKALA SUMM   N/A     50  28  43 E23         N/A
MAALAEA BAY*     N/A     77 N/A N/A N21G29      N/A
HALEAKALA*     NOT AVBL
KAUPO GAP*     NOT AVBL
KULA 1*          N/A     53  45  74 E2          N/A
$$

HIZ023>026-051200-
BIG ISLAND OF HAWAII COAST AND LOWER SLOPES-

CITY           SKY/WX    TMP DP  RH WIND       PRES   REMARKS
KAILUA KONA    FAIR      81  68  64 CALM      30.01F
HILO           CLOUDY    76  70  82 VRB6      30.08F
HONOKAA*       NOT AVBL
KAWAIHAE MWT*  NOT AVBL
KAWAIHAE*        N/A     81 N/A N/A N3          N/A
SOUTH POINT*     N/A     73 N/A N/A E20G29      N/A
UPOLU AIRPORT*   N/A     77 N/A N/A E20G29      N/A
KAMUELA*       MOSUNNY   64  61  88 NE24      30.12F
HAKALAU*         N/A     51  51  99 CALM        N/A
KALOKO-HONOKO*   N/A     77  68  73 NE3       30.00F
PALI 2*          N/A     64  61  88 N24G37      N/A
KEALAKOMO*       N/A     77  64  65 N17G28      N/A
KAUPULEHU*     NOT AVBL
KAPAPALA*        N/A     65  65  99 NW3         N/A
LOWER KAHUKU*    N/A     63  63 100 CALM        N/A
PUHE CS*         N/A     81  64  57 E5G18       N/A
PUHO CS*         N/A     75  68  78 NE3         N/A
PTA KEAMUKU*   NOT AVBL
WAIKOLOA*      NOT AVBL
$$

HIZ027>028-051200-
BIG ISLAND OF HAWAII INTERIOR AND SUMMMITS-

CITY           SKY/WX    TMP DP  RH WIND       PRES   REMARKS
BRADSHAW FIELD FAIR      56  52  87 E3        30.36F
MK VISITOR CEN   N/A     54  37  54 NE12        N/A
MAUNA KEA*       N/A     36  36 100 NE30        N/A  WCI  22
MAUNA LOA*     NOT AVBL
MAUNA LOA 1*   NOT AVBL
PTA KIPUKA*      N/A     55  54  94 SE5G10      N/A
PTA RANGE 17*    N/A     59  54  82 E12G23      N/A
PTA WEST*        N/A     64  55  72 SE10G17     N/A
NENE CABIN*      N/A     48  45  87 N5          N/A
AHUMOA*        NOT AVBL
PTA PORTABLE*  NOT AVBL
PUU MALI*        N/A     59  46  63 E15G22      N/A
$$

HIC003-051200-
NORTHWEST ISLANDS-

CITY           SKY/WX    TMP DP  RH WIND       PRES   REMARKS
MIDWAY ISLAND  CLOUDY    77  75  94 E12       30.19F
MIDWAY NOS*      N/A     79 N/A N/A MISG      30.18S
FRENCH FRIGATE NOT AVBL
$$

PHZ110>124-180-051200-
BUOY REPORTS

STATION/POSITION TIME  TEMP    WIND        PRES    WAVE   SWELL
                       AIR SEA DIR/SP/G            HT/PER HT/DIR
                 (UTC) (F)     (DEG/KT/KT) (MB)    (FT/S) (FT/D)
BUOY 51101       1110   79 80   80/ 16/ 17 1019.9
BUOY 51100       NOT AVBL
BUOY 51002       1110   79 80   80/ 19/ 25 1015.4
BUOY 51003       1110      82              1017.3
BUOY 51004       1110   78 79   70/ 16/ 17 1015.0
WAIMEA BAY#      1056      80                N/A     4/ 7
MOKAPU POINT#    1056      80                N/A     6/ 6   2/110
LANAI#           1056      80                N/A     3/11   2/210
BARBERS PT#      1026      81                N/A     3/11   2/180
PAUWELA#         1026      79                N/A     5/ 7
HILO#            1113      80                N/A     7/ 8   2/130
KANEOHE BAY#     1056      80                N/A     5/ 7
KANEOHE BAY 2#   NOT AVBL
HANALEI#         NOT AVBL
KAHULUI HARBOR   1054   76 80   70/ 11/ 13 1018.4F
HONOLULU HARBOR  1054   79 81  100/  6/ 12 1017.9F
PEARL HARBOR#    1100      81                N/A     3/ 5   2/170
KILO NALU        NOT AVBL
HILO HARBOR      1054   75 81  310/  4/  6 1017.3F
MOKUOLOE         1036   79 81   80/ 12/ 15 1018.5F
NAWILIWILI       1054   79 84   70/ 13/ 16 1018.6F
WHOTS BUOY       NOT AVBL
BUOY 51028       NOT AVBL
$$

......................KEY........................................
  SKY/WX - SKY CONDITIONS/PRESENT WEATHER
  TMP    - TEMPERATURE IN FAHRENHEIT
  DWPT   - DEWPOINT IN FAHRENHEIT
  RH     - RELATIVE HUMIDITY IN PERCENT
  WIND   - DIRECTION AND SPEED /MPH FOR ISLANDS...KTS FOR BUOYS/
  PRES   - MEAN SEA LEVEL PRESSURE IN INCHES OF HG
  VSB    - VISIBILITY IN MILES
  HX     - HEAT INDEX
  WCI    - WIND CHILL INDEX
  VRB    - VARIABLE WIND DIRECTION
  N/A    - NOT AVAILABLE



USA.gov is the U.S. government's official web portal to all federal, state and local government web resources and services.